[Date Prev][Date Next][Thread Prev][Thread Next] - [Date Index][Thread Index][Author Index]

2 Line ISS Keps 2-9



ISS
1 25544U 98067A   03040.17306145  .00028767  00000-0  34661-3 0  6680
2 25544  51.6373 303.1694 0005536 128.0488  26.1729 15.60541369241030


----
Via the sarex mailing list at AMSAT.ORG courtesy of AMSAT-NA.
To unsubscribe, send "unsubscribe sarex" to Majordomo@amsat.org



AMSAT Top AMSAT Home